GEFSSE_500_meanwind_228.txt.gz
Wind_Speed
17 16 15 14 13 12 11 11 11 10 10 10 9 8 8 8 8 7 7 7 7 7 7 8 8 8 9 10 10 11 11 11 12 12 13 13 14 14 14 15 15 16 17
19 18 17 16 15 14 13 13 12 12 11 11 10 10 9 9 9 9 9 8 8 8 9 9 9 10 10 11 12 12 13 13 13 14 14 15 15 16 16 16 17 17 18
21 20 19 18 17 16 15 14 14 14 13 12 12 11 11 11 10 10 10 10 10 10 10 10 11 11 12 13 13 14 14 15 15 16 16 16 17 17 17 18 18 19 19
23 22 20 20 19 18 17 16 16 15 14 13 13 12 12 12 11 11 12 12 11 11 12 12 12 13 13 14 15 15 16 16 17 17 17 17 18 18 19 19 20 20 21
24 23 22 21 20 20 19 18 17 16 16 15 14 14 13 13 13 12 13 13 12 13 13 13 14 15 15 15 16 16 17 17 18 18 18 18 19 20 20 21 22 22 23
26 25 24 23 22 21 21 20 19 18 17 16 16 15 15 14 13 13 13 14 14 14 15 15 16 16 17 17 17 18 18 18 18 19 19 20 20 21 22 23 24 24 25
27 26 26 25 24 23 23 22 21 20 19 18 17 17 16 16 15 15 15 15 16 16 17 17 17 18 18 18 19 19 19 20 20 20 21 21 22 23 24 25 26 26 26
28 28 27 27 26 25 24 23 22 21 20 19 19 18 18 18 17 17 17 17 17 17 18 18 19 19 19 20 20 20 20 21 21 22 22 23 24 25 26 27 27 28 28
30 29 28 28 28 27 25 24 23 22 21 21 20 20 19 19 19 18 18 18 18 19 20 20 20 21 21 21 21 21 21 22 22 23 24 25 26 27 28 28 28 29 29
32 31 30 29 29 28 27 25 25 24 23 22 22 21 21 20 20 20 20 20 20 21 21 21 21 21 22 22 22 22 22 23 24 24 25 26 27 28 28 29 29 30 30
33 32 31 31 30 29 28 27 26 26 25 24 23 23 22 22 21 21 21 21 22 22 22 22 22 22 23 23 23 23 24 25 25 26 27 28 28 29 29 30 31 31 32
34 33 32 31 31 30 29 28 28 27 26 25 25 24 23 23 23 22 23 23 23 23 24 24 24 23 24 24 24 25 25 26 27 28 29 29 29 30 30 31 32 33 33
35 34 33 33 32 31 30 29 29 28 27 27 26 25 24 24 24 24 24 24 25 25 25 25 25 24 25 25 25 26 27 28 29 29 29 29 30 31 32 32 33 34 34
36 35 35 34 33 33 31 31 30 29 28 28 27 26 26 26 26 26 26 26 26 26 26 26 26 26 26 26 27 28 29 30 30 30 30 31 31 32 33 33 34 34 34
38 37 36 35 35 34 33 32 31 31 30 29 29 28 27 27 27 27 27 27 27 27 27 27 27 27 27 28 28 29 29 30 31 30 31 32 32 33 33 34 34 33 33
39 38 37 37 36 35 34 33 33 32 31 31 30 29 29 28 28 28 28 28 28 28 28 28 28 28 28 29 29 29 30 31 31 31 31 32 32 33 33 33 33 32 32
39 39 38 38 37 36 35 33 33 33 32 31 31 31 30 30 29 29 28 28 29 29 29 29 29 29 29 30 31 31 31 32 32 32 32 32 32 33 33 33 33 32 32
40 39 39 39 38 37 36 35 34 33 33 32 31 31 31 31 30 30 30 29 29 30 30 29 30 30 30 30 31 31 32 32 32 33 32 32 32 32 33 32 32 32 32
40 39 40 40 39 38 37 37 36 35 34 33 32 31 31 31 31 31 31 30 30 30 30 30 30 29 30 31 32 32 32 32 33 33 33 32 32 32 33 32 32 32 32
41 40 40 41 41 40 38 38 37 36 35 34 33 32 32 32 32 32 31 31 31 31 31 31 30 30 30 31 32 32 32 33 33 33 32 32 32 32 32 33 33 32 32
43 41 40 41 41 41 40 38 38 37 36 35 34 33 33 33 32 31 31 31 31 31 30 30 31 31 32 32 32 33 33 33 33 32 32 32 32 33 33 33 33 33 33
43 43 42 41 41 41 40 39 38 38 37 36 35 34 34 33 32 32 32 31 31 31 30 31 32 32 32 32 32 32 32 32 32 32 32 32 33 33 33 33 33 33 33
43 43 43 42 41 41 41 40 39 38 38 37 37 36 34 34 33 33 33 32 32 32 32 32 32 32 32 32 32 32 32 31 31 32 32 33 33 33 33 33 33 33 34
42 43 43 43 42 41 41 41 41 40 39 38 37 37 36 35 34 34 33 33 33 33 33 33 33 33 33 32 32 32 32 31 31 31 31 32 32 33 33 33 33 34 34
41 42 42 42 42 42 41 41 41 41 40 39 38 38 37 36 36 36 35 34 34 34 33 34 33 33 33 33 33 32 32 32 32 32 31 32 33 34 34 34 34 34 34
40 41 41 42 42 43 42 41 41 41 40 40 39 39 39 38 37 36 36 35 35 35 35 34 34 34 34 34 34 33 33 33 33 33 32 32 32 33 33 34 33 33 33

GEFSSE_500_meanwind_234.txt.gz
Wind_Speed
17 16 15 14 14 13 13 12 11 10 9 8 7 7 6 6 6 5 5 5 5 6 6 7 8 8 8 9 10 10 11 12 12 13 13 14 14 15 16 16 16 16 17
19 18 17 16 15 14 14 13 12 11 10 10 9 8 8 7 7 6 6 7 7 7 7 8 8 9 9 10 11 12 12 13 14 14 14 15 16 16 17 17 17 18 18
21 20 19 18 17 16 15 14 14 13 12 11 10 10 9 9 8 8 8 8 8 8 9 9 9 10 10 11 12 13 13 14 15 15 15 16 17 18 18 18 18 19 19
23 22 21 20 19 18 17 16 15 14 13 13 12 11 11 10 10 9 9 9 9 9 9 10 11 11 12 12 13 14 14 15 15 16 16 17 18 18 19 19 20 21 21
25 24 23 22 21 20 19 18 17 16 15 14 13 12 12 12 11 10 10 10 10 11 11 12 13 13 13 13 14 15 15 16 16 17 17 18 19 19 20 21 21 22 23
27 26 25 24 23 22 21 20 19 18 17 16 15 14 13 13 12 12 12 12 12 12 13 13 14 14 14 15 15 16 16 17 17 18 18 19 20 21 22 22 23 24 24
29 29 28 26 24 23 23 22 21 19 18 17 16 15 14 14 14 13 13 13 13 14 14 15 15 15 15 16 17 17 17 18 18 19 20 20 21 22 23 24 25 25 26
31 30 30 28 27 25 24 24 23 21 20 19 18 17 16 16 15 15 15 14 15 15 15 16 16 16 17 17 18 18 18 19 19 20 21 21 22 23 24 25 26 27 28
32 31 31 30 29 27 26 25 24 23 22 21 20 19 18 17 17 17 16 16 16 16 17 17 17 18 18 19 19 19 20 20 20 21 22 22 23 24 25 26 27 28 28
34 33 32 32 31 29 28 27 26 25 24 23 22 21 20 19 18 18 18 18 18 18 18 18 19 19 20 20 20 20 21 21 22 22 23 24 25 26 27 28 29 29 29
35 34 33 33 32 31 29 28 27 26 25 24 24 22 21 21 20 20 20 20 19 19 20 20 20 20 21 21 21 22 22 23 23 23 24 25 26 27 28 29 29 30 30
37 36 35 34 33 33 31 29 28 28 27 26 25 24 23 22 22 22 21 21 21 21 21 21 22 22 22 22 23 23 23 24 24 25 26 26 27 28 29 30 30 31 31
38 37 36 36 35 34 33 31 29 29 28 27 26 25 24 24 23 23 23 22 22 22 22 23 23 23 23 24 24 24 25 25 26 26 27 28 29 30 30 31 31 32 31
38 38 37 36 36 35 34 33 31 30 29 29 28 27 26 26 25 25 24 24 24 24 24 24 24 24 25 25 25 26 26 27 27 28 28 29 30 31 32 32 32 32 32
39 39 38 38 37 36 35 34 33 31 30 30 29 28 27 27 27 26 25 25 25 25 26 26 26 26 26 26 27 27 27 28 28 29 30 31 32 32 32 33 33 33 33
40 39 39 39 38 36 35 35 34 33 32 31 30 30 29 29 28 28 27 27 27 27 27 27 27 27 27 27 28 28 29 29 30 30 31 32 33 33 33 33 33 33 32
41 40 40 39 39 38 36 35 35 34 33 31 31 31 30 30 29 29 29 29 29 29 29 29 28 29 29 29 29 30 30 31 31 32 32 33 33 33 33 33 33 33 32
43 41 40 40 39 38 38 37 36 35 35 33 31 32 31 31 31 31 30 30 30 30 30 30 30 30 30 30 31 31 32 32 32 32 33 33 33 33 33 33 33 32 32
44 43 42 41 40 39 39 39 38 38 37 36 34 32 33 32 32 32 32 32 32 32 31 31 32 32 31 31 32 32 32 32 33 33 33 33 33 33 33 33 33 33 33
43 44 43 42 41 41 41 40 40 40 38 37 36 35 34 33 33 32 33 33 33 33 33 32 33 33 33 33 32 32 32 32 32 33 33 33 34 34 34 33 34 34 34
39 42 42 42 41 41 41 41 40 40 40 38 38 36 35 34 34 34 34 33 33 33 33 33 33 33 33 33 32 32 33 33 33 34 34 34 35 35 34 34 34 34 34
37 39 41 42 42 41 41 42 41 40 40 40 39 38 36 35 35 35 35 36 36 36 35 35 35 34 34 34 34 33 33 33 33 34 34 35 35 35 35 35 35 34 34
37 38 39 41 41 42 42 42 42 41 41 41 40 39 38 37 36 36 36 35 36 37 36 35 35 35 35 34 34 34 34 34 33 34 34 34 34 34 35 35 34 35 35
38 38 39 39 40 41 42 42 43 42 41 41 41 40 39 39 37 36 37 36 36 36 36 35 34 35 34 34 35 35 35 34 33 32 32 33 33 34 34 34 34 34 35
38 39 39 40 40 41 41 42 43 42 42 42 41 41 39 39 38 36 36 36 36 35 35 35 34 33 33 33 33 33 32 33 33 32 31 31 32 34 34 33 34 34 34
37 39 39 39 40 40 41 42 43 43 42 42 42 41 39 38 39 38 38 37 35 34 34 35 34 34 34 33 33 33 33 32 32 32 32 32 33 34 34 34 34 35 34

GEFSSE_500_meanwind_240.txt.gz
Wind_Speed
19 19 18 17 16 15 14 13 12 12 12 11 11 10 10 9 9 8 7 6 5 4 4 4 4 5 5 5 6 6 7 8 8 9 9 10 11 12 13 13 14 15 16
22 21 20 19 18 17 16 15 15 14 13 12 12 11 11 10 10 9 8 7 6 6 5 5 5 6 6 7 7 7 8 9 9 10 10 11 12 13 14 15 16 16 17
23 22 22 21 20 19 18 18 17 16 15 14 13 13 12 12 11 10 9 8 8 7 7 6 7 7 8 8 8 9 9 10 10 11 11 12 13 14 15 16 17 17 18
25 24 24 23 22 21 20 19 19 18 17 16 15 14 14 13 12 11 10 10 9 9 8 8 8 9 9 9 10 10 10 11 12 12 13 14 15 16 17 17 18 18 19
27 26 26 25 24 23 22 21 20 19 18 18 17 16 15 14 14 13 12 11 11 10 10 10 10 10 10 10 11 11 12 12 13 13 14 15 16 17 17 18 18 19 19
28 28 27 26 26 25 24 23 22 21 20 19 18 18 16 16 15 14 14 13 12 12 12 12 12 12 12 11 12 12 13 14 14 15 15 16 17 18 18 19 19 20 20
29 29 29 28 27 26 25 25 24 23 22 21 20 19 18 17 17 16 15 14 14 14 13 13 13 13 13 13 13 14 14 15 15 16 16 17 18 18 19 20 21 21 22
31 31 31 31 29 29 28 26 26 24 24 23 22 21 20 19 18 17 17 16 16 15 15 14 14 14 14 14 15 15 16 16 16 17 17 18 19 20 20 21 22 23 23
34 33 33 32 32 31 29 29 28 26 26 25 24 23 22 21 20 19 18 18 17 17 16 16 16 15 16 16 16 17 17 17 17 18 18 19 20 21 22 22 23 24 24
36 35 35 34 33 33 32 30 29 28 28 27 26 24 23 23 21 20 20 19 19 18 18 17 17 17 17 17 18 18 18 18 19 19 20 21 21 22 23 24 24 25 25
37 37 37 36 35 34 34 32 31 30 29 29 27 26 25 24 23 22 21 20 20 20 19 18 19 19 19 19 19 19 20 20 21 21 22 22 23 24 24 25 25 26 26
38 38 38 38 37 36 35 34 33 32 30 29 29 28 27 26 25 24 23 22 21 21 20 20 20 20 20 20 20 21 21 21 22 22 23 24 24 25 25 26 26 27 27
39 39 39 39 39 37 36 36 35 34 32 30 30 30 29 28 27 26 25 24 24 23 22 22 22 22 22 22 22 22 22 23 23 24 24 25 25 25 26 26 27 27 28
38 39 40 40 39 38 37 37 36 35 34 32 30 30 30 29 29 28 27 26 25 24 24 24 24 24 24 24 24 24 24 24 25 25 25 26 26 26 26 27 27 28 28
39 39 39 39 40 39 38 38 36 37 37 34 33 31 30 30 30 29 28 27 27 26 26 25 25 25 26 25 25 26 26 26 26 26 26 27 27 27 27 28 28 29 29
39 39 39 39 38 39 39 39 38 37 37 36 36 33 31 31 31 31 29 28 28 28 28 27 27 27 27 27 27 27 27 27 27 27 28 28 28 28 28 29 29 30 30
40 40 40 40 39 39 40 39 39 38 38 38 37 36 34 32 31 31 30 30 29 29 29 29 29 29 29 29 29 29 29 29 29 29 29 29 29 29 29 30 30 31 31
40 40 40 40 40 39 40 40 39 39 39 38 38 37 36 35 32 31 32 32 31 31 31 30 30 30 30 30 30 30 30 29 29 30 30 30 30 30 31 31 31 32 32
39 39 39 40 40 41 40 40 40 40 40 39 39 38 37 36 34 33 33 33 33 33 32 31 31 31 31 31 31 30 30 30 30 30 31 31 31 32 32 32 32 33 33
38 39 38 39 40 41 42 41 40 40 40 40 39 38 37 37 36 35 34 33 34 34 34 33 33 33 32 32 32 32 32 31 31 31 32 32 33 33 33 33 33 34 34
35 38 38 38 38 40 41 41 40 41 41 41 40 39 38 37 37 36 35 34 34 34 34 34 34 34 34 33 33 33 33 32 32 32 32 33 33 33 33 33 33 34 35
34 36 39 38 38 39 40 40 40 41 41 41 41 40 40 39 37 36 36 36 34 34 35 36 35 34 34 34 34 33 33 33 33 33 33 33 34 34 33 33 33 34 35
34 35 36 38 38 38 38 40 40 40 41 41 41 42 41 41 40 39 37 37 37 36 34 35 36 35 34 34 34 34 33 33 33 33 33 34 34 34 34 33 34 34 35
34 34 35 37 37 36 37 39 40 40 41 42 41 41 42 43 41 40 38 37 37 37 36 35 35 36 35 34 34 34 34 33 33 34 34 34 34 34 34 34 34 34 35
35 35 35 35 36 37 38 38 39 39 39 40 41 41 42 42 41 40 40 39 38 38 38 37 36 36 36 35 35 34 35 34 34 35 34 34 34 35 35 35 34 34 35
35 35 35 35 35 35 36 38 38 39 39 40 40 40 40 41 41 41 41 41 40 39 39 38 36 36 36 36 35 35 35 35 35 35 34 34 34 35 35 35 34 34 35

GEFSSE_500_meanwind_246.txt.gz
Wind_Speed
19 19 20 20 19 18 17 16 16 14 13 12 12 12 11 11 10 10 9 8 7 7 6 5 5 5 5 6 6 6 6 7 7 7 8 9 9 10 11 12 13 14 15
20 21 21 21 20 19 19 17 17 16 15 14 13 13 13 13 12 11 10 9 9 8 8 7 7 7 7 7 7 8 8 8 8 8 9 10 11 12 13 14 15 15 15
22 22 22 22 22 21 20 19 18 18 17 16 15 14 14 14 13 12 11 11 10 10 9 9 8 8 8 8 9 9 9 9 9 10 10 12 12 13 14 15 15 16 16
23 23 24 24 24 23 22 21 20 19 18 17 17 17 16 15 15 14 13 12 12 11 11 10 10 10 10 10 10 10 11 11 11 11 12 13 14 15 15 15 16 16 16
25 25 26 26 25 25 24 24 23 22 20 20 19 18 18 17 16 16 15 14 14 13 13 12 12 11 11 11 12 12 12 12 13 13 13 14 15 15 16 16 17 17 17
27 27 27 27 27 27 26 26 25 24 23 22 21 20 19 18 18 18 17 17 16 15 14 14 13 13 13 13 13 13 13 13 14 15 15 15 16 16 16 17 17 18 18
29 29 30 29 29 29 29 28 27 26 25 24 23 22 21 20 20 19 19 19 18 16 16 15 15 15 14 14 14 14 14 15 15 16 16 17 17 17 17 18 19 19 19
30 30 31 31 31 31 31 30 29 28 27 26 25 24 23 22 21 21 20 20 19 18 17 17 16 16 16 16 15 15 15 16 16 17 17 18 18 19 19 19 20 20 21
31 31 32 32 33 32 32 31 31 30 29 28 27 27 25 24 23 23 22 21 20 20 19 19 18 17 17 17 17 17 17 17 17 18 18 19 20 20 20 21 21 22 22
32 32 32 33 33 33 33 33 32 32 31 30 29 29 28 27 26 24 23 23 22 21 21 20 20 19 19 19 19 18 18 19 19 19 20 20 21 21 21 21 22 23 23
33 33 33 33 33 34 34 33 33 33 32 32 31 30 29 28 28 26 25 25 24 23 23 22 21 21 20 20 20 20 20 20 21 21 21 21 22 22 22 23 23 24 24
34 34 34 34 34 34 34 34 34 34 34 33 33 31 30 30 29 28 27 26 25 25 24 23 23 23 22 22 22 22 22 22 22 22 22 23 23 23 24 24 24 25 25
35 35 35 35 36 36 36 36 35 35 34 34 34 33 32 31 31 30 29 28 27 26 26 25 25 24 24 24 23 23 23 23 23 23 24 24 24 25 25 25 26 26 26
35 36 36 36 37 38 38 37 37 36 36 35 35 34 34 33 32 31 30 29 28 27 27 27 26 26 25 25 25 25 25 25 24 24 25 26 26 26 26 27 27 28 28
35 35 36 36 37 38 39 39 38 38 38 37 36 35 35 34 34 33 32 30 30 29 29 28 28 27 27 27 27 26 26 26 26 26 27 27 27 28 28 28 29 29 30
34 35 36 36 37 38 39 39 39 39 39 38 37 36 35 34 34 33 33 33 32 31 30 30 29 29 29 28 28 28 28 28 28 28 28 28 28 29 29 30 30 30 31
33 35 35 35 37 38 40 40 39 40 40 39 38 37 36 35 35 35 33 33 32 32 31 30 30 30 30 30 29 29 29 29 29 29 30 30 30 30 30 31 31 31 32
33 34 36 35 36 37 39 40 39 39 40 40 39 38 37 36 35 35 35 34 33 32 32 31 31 31 31 31 31 31 30 30 30 30 31 31 31 31 31 31 31 31 32
34 35 36 35 36 37 38 39 40 39 39 39 39 38 37 37 35 35 34 34 34 34 33 32 32 31 31 31 31 31 31 31 31 31 31 32 32 32 32 32 32 32 33
35 35 35 36 37 37 37 39 39 40 41 40 39 39 38 37 36 36 35 36 35 35 34 34 34 33 32 32 31 32 33 32 32 32 32 32 32 33 33 32 33 33 33
34 35 36 37 37 37 37 38 39 40 40 41 41 40 40 39 38 37 36 37 36 36 35 34 33 34 33 33 33 33 33 33 32 32 33 33 33 33 33 33 33 33 33
33 35 37 37 37 37 37 37 38 38 40 40 40 40 41 40 39 38 36 36 37 37 37 36 35 34 35 35 35 34 34 33 33 34 34 33 33 33 33 33 33 33 33
32 35 37 37 38 38 38 37 38 39 39 39 39 40 41 41 40 39 38 37 37 38 37 37 37 36 35 37 37 36 35 35 34 34 34 34 34 33 33 34 33 33 33
30 32 35 37 38 39 37 36 37 39 39 39 40 40 40 40 39 39 38 38 38 39 39 39 39 38 37 37 37 37 36 36 35 34 34 34 35 35 35 35 34 34 34
31 32 34 36 38 38 37 36 36 38 39 39 39 40 40 42 41 40 40 39 39 40 40 40 41 40 40 39 39 39 38 37 36 36 35 35 35 36 36 35 34 34 34
30 32 32 34 37 37 37 36 35 36 38 39 40 39 39 40 41 41 40 40 40 40 40 40 41 41 41 40 39 39 40 38 37 36 37 36 36 37 36 36 35 34 34

GEFSSE_500_meanwind_252.txt.gz
Wind_Speed
16 16 16 15 16 17 16 16 16 15 15 14 14 13 13 12 12 12 11 11 10 10 9 8 8 7 7 7 7 7 7 7 8 8 8 8 9 9 10 10 11 12 12
17 17 17 17 17 17 17 18 17 17 17 16 15 15 14 13 14 14 13 13 12 12 11 10 9 9 9 9 9 8 8 8 9 9 9 9 10 10 11 11 12 13 13
18 19 18 18 18 18 18 19 19 19 19 18 18 17 16 15 15 15 15 15 15 14 13 12 12 11 11 11 10 10 10 10 10 10 10 11 11 11 12 12 13 13 14
20 20 20 20 19 20 20 20 20 21 21 21 20 19 18 17 17 17 17 17 17 16 15 14 14 13 13 12 12 11 11 11 11 11 11 12 12 13 13 14 14 15 15
23 22 22 21 21 21 21 22 22 22 23 23 22 21 20 19 19 19 19 19 18 18 17 17 16 16 15 14 13 13 12 12 12 12 13 13 14 14 14 15 15 16 16
25 24 24 23 23 23 23 24 24 24 24 25 24 24 23 21 21 21 20 20 20 20 19 19 18 18 17 16 15 15 15 14 14 14 14 14 15 15 16 16 17 17 17
28 27 26 25 25 24 25 25 25 25 26 26 27 26 26 24 23 22 22 22 21 21 21 20 20 19 19 18 18 17 16 16 16 16 16 16 16 16 17 17 18 18 18
30 29 28 27 27 27 26 26 27 27 27 28 29 29 28 27 26 25 24 24 23 23 22 22 21 21 21 20 19 18 18 17 17 17 17 17 18 18 18 19 19 19 19
32 31 30 29 29 28 27 27 28 28 29 29 30 30 30 29 28 27 26 26 25 24 24 23 23 23 23 22 21 20 19 19 18 18 19 19 19 20 20 20 20 20 21
33 32 31 30 30 29 29 29 29 29 30 30 31 31 31 31 30 29 28 27 27 26 26 25 25 24 24 23 22 22 21 20 20 20 20 20 21 21 21 21 21 22 22
34 33 33 32 30 30 31 30 30 31 32 32 31 31 31 32 32 31 30 29 28 28 27 27 26 26 26 25 24 23 23 22 21 21 22 22 22 22 23 23 22 23 24
34 34 34 34 32 31 32 32 32 33 34 34 34 33 32 32 32 32 31 31 30 29 29 29 28 28 28 27 26 25 25 24 23 23 23 23 23 24 24 24 24 24 25
34 34 34 34 33 33 33 33 33 34 35 35 35 35 33 33 33 33 33 32 32 31 31 30 31 30 29 29 28 27 27 26 25 25 25 25 24 24 25 25 25 26 27
34 34 34 34 34 34 34 33 33 35 36 36 36 37 36 35 34 34 34 33 33 32 31 31 32 31 31 30 29 29 28 28 27 27 27 27 26 26 26 26 27 27 28
35 35 34 34 34 34 34 34 33 35 36 37 37 38 37 36 36 36 35 34 33 33 33 31 32 31 31 30 30 30 30 29 28 28 28 28 28 28 28 28 29 29 30
34 34 34 35 35 35 34 35 35 35 37 38 38 39 38 37 37 37 37 36 35 34 34 33 33 33 32 32 31 30 30 30 29 30 30 30 30 30 30 30 30 30 31
34 33 33 34 35 36 35 35 36 36 37 38 39 40 40 39 39 39 38 38 37 35 33 33 33 34 34 33 33 32 32 31 31 31 31 31 31 31 31 31 31 31 32
33 33 33 33 34 36 37 36 36 37 37 38 39 40 41 40 39 39 39 39 38 37 35 32 32 33 33 33 33 32 32 31 31 32 32 32 32 32 32 32 33 33 33
33 34 33 33 35 35 36 36 36 37 36 36 37 38 40 40 40 39 39 39 39 38 37 36 34 33 33 34 34 34 33 32 32 33 33 33 33 33 33 33 34 34 34
32 34 34 34 35 35 35 36 36 36 37 37 37 37 39 39 40 40 40 39 38 38 37 38 36 35 35 35 35 35 34 33 34 34 34 33 33 34 34 34 34 34 34
32 34 35 34 34 35 35 34 35 35 36 37 37 37 39 39 39 39 40 39 39 39 38 38 37 36 36 36 36 36 35 34 34 35 36 35 35 35 34 34 34 34 34
32 32 33 35 34 34 35 35 36 36 36 37 37 37 38 39 38 39 40 40 40 39 39 39 39 38 37 36 37 37 37 36 36 35 36 37 36 35 35 34 34 34 33
30 31 32 33 33 34 35 35 36 35 35 36 36 36 37 38 38 38 39 39 39 39 40 40 40 39 38 38 38 38 39 39 37 35 36 37 36 36 35 35 35 34 34
29 30 31 32 34 35 36 36 36 35 35 35 36 36 35 36 38 39 39 39 39 40 40 40 41 40 39 38 38 39 39 39 39 37 37 37 36 35 35 35 35 35 35
28 28 29 30 32 33 35 35 35 35 35 35 35 36 36 36 37 39 39 39 40 41 40 40 41 41 40 39 38 38 39 38 38 38 37 36 35 35 35 35 35 35 35
29 28 29 30 31 32 33 34 35 34 34 34 35 35 35 36 37 38 40 38 38 40 40 40 40 40 40 40 39 38 38 39 38 38 38 37 36 36 36 35 34 34 35

GEFSSE_500_meanwind_258.txt.gz
Wind_Speed
16 16 16 16 15 15 14 14 13 13 14 13 12 12 12 12 12 11 10 10 10 10 9 9 9 9 8 9 8 8 9 9 9 8 8 8 9 9 9 10 11 11 12
18 18 17 17 17 17 16 15 15 14 15 15 14 14 14 15 14 13 12 12 12 12 11 11 11 11 10 10 10 10 10 10 10 10 9 10 10 10 10 11 12 12 13
20 20 20 19 19 19 18 17 17 16 16 16 16 16 16 16 16 15 14 14 13 14 13 13 13 12 12 12 11 11 11 11 11 11 11 11 11 11 12 12 13 13 14
22 22 22 22 21 20 20 19 19 18 17 17 18 18 18 18 18 18 17 16 16 16 16 15 15 15 14 14 14 13 13 12 12 12 12 12 13 13 13 13 14 15 15
24 24 24 24 23 22 22 21 21 20 20 19 19 19 19 20 20 19 19 19 19 18 18 18 17 17 17 16 16 15 15 14 14 14 14 14 14 14 15 15 15 16 16
26 26 25 25 25 24 24 23 22 23 22 22 21 21 21 21 22 22 22 21 21 21 21 20 20 19 19 18 18 17 17 16 16 16 16 16 16 16 16 17 17 17 18
27 28 28 27 26 26 26 25 24 24 24 24 23 23 23 23 24 24 24 24 24 23 23 22 21 21 21 20 20 19 19 19 18 18 18 18 18 18 18 18 19 19 19
29 29 30 29 28 28 28 27 26 25 25 25 24 25 25 25 25 25 25 26 26 26 25 24 23 23 23 22 22 22 21 21 20 20 20 20 20 20 20 20 20 20 20
31 31 32 31 30 30 29 29 29 27 27 27 26 25 26 26 26 26 27 27 27 28 27 26 25 25 25 24 23 24 23 23 22 22 22 22 22 22 21 21 21 22 22
32 32 32 32 32 31 30 30 30 29 29 28 28 27 27 28 28 28 28 28 28 28 28 28 27 27 26 26 25 25 25 25 25 25 24 24 24 23 23 23 23 23 24
33 33 33 33 32 32 31 31 31 31 30 30 30 30 29 30 29 29 29 29 29 29 29 28 28 27 27 28 28 27 27 27 27 26 26 26 26 25 25 25 25 25 25
33 33 34 33 33 32 32 32 32 32 32 31 31 31 31 31 31 30 31 31 31 30 30 29 29 29 29 29 29 29 29 29 29 28 28 28 28 27 27 27 27 27 27
33 33 33 34 35 34 33 33 33 33 33 33 33 34 34 33 33 33 33 33 32 32 31 32 32 32 31 30 30 30 30 30 30 30 29 29 29 29 28 28 28 28 28
33 33 33 34 36 35 34 34 34 34 34 35 35 35 36 36 35 35 34 34 33 33 33 32 33 33 32 31 31 31 31 31 31 31 31 30 30 30 30 29 29 29 29
34 34 33 34 35 36 36 35 35 35 36 36 37 37 37 37 37 36 36 35 35 34 34 34 34 34 33 33 32 33 33 32 32 32 32 32 32 32 31 31 30 30 31
34 34 33 33 35 36 37 36 36 36 37 37 37 38 37 37 37 38 37 36 36 36 36 35 35 35 34 34 34 33 34 34 33 33 33 33 33 33 33 32 31 32 32
34 34 34 34 35 36 37 37 37 37 37 38 38 38 38 37 37 37 37 37 37 37 36 36 36 35 35 35 35 34 34 34 34 33 33 33 33 33 33 32 32 32 33
34 34 34 34 35 35 35 37 38 38 38 38 39 38 38 38 37 37 37 36 37 37 37 37 37 37 36 36 35 35 34 34 35 34 34 34 33 33 33 33 33 33 34
34 34 34 35 36 36 36 36 37 38 39 38 38 39 39 38 38 38 37 37 37 38 38 38 37 37 37 38 38 36 36 35 35 35 34 34 34 33 33 34 34 33 34
34 34 35 35 36 36 36 36 37 38 38 38 39 39 39 39 38 38 37 36 37 38 38 38 38 37 37 37 38 37 37 36 36 36 35 35 34 33 33 34 34 34 33
34 34 35 36 37 37 37 37 37 37 38 38 38 38 39 39 38 37 37 36 36 37 38 39 39 38 38 38 38 38 38 37 37 37 36 35 35 34 33 34 34 34 34
34 34 34 35 36 36 37 36 37 38 38 38 38 37 37 37 37 36 36 36 36 36 38 39 39 39 40 39 38 39 39 38 36 36 35 36 36 36 34 34 33 34 34
32 33 34 34 35 36 36 36 35 36 36 37 38 37 37 37 37 36 35 35 35 35 36 39 39 40 39 39 38 38 39 38 37 36 36 35 36 37 36 35 36 36 36
32 33 34 34 35 35 35 35 34 34 35 35 36 37 37 37 37 37 37 37 36 36 37 38 38 40 40 40 40 39 38 38 38 37 37 36 36 37 37 37 36 37 36
31 31 32 32 34 34 35 34 33 33 34 34 36 37 38 39 39 38 38 36 36 36 36 37 37 38 39 40 40 39 39 39 38 38 38 37 38 38 37 37 37 37 37
30 30 31 32 32 32 34 35 34 34 34 34 36 37 38 38 39 39 38 37 36 35 36 37 37 37 38 40 40 40 41 41 40 40 39 39 40 40 40 39 39 38 38